Erzurum, Turkey

8:02 AM +03 on April 28, 2017 (GMT +0300)
Erzurum

Weather History for LTCE - October, 2012

Change the Weather History Date:

Friday, October 5, 2012

  Actual Average Record
Temperature  
Mean Temperature 54 °F -  
Max Temperature 68 °F 56 °F 77 °F (2001)
Min Temperature 41 °F 34 °F 21 °F (2011)
Degree Days  
Heating Degree Days 10    
Growing Degree Days 4 (Base 50)    
Moisture  
Dew Point 44 °F    
Average Humidity 71    
Maximum Humidity 100    
Minimum Humidity 19    
Precipitation  
Precipitation 0.00 in 0.06 in - ()
Sea Level Pressure  
Sea Level Pressure 30.12 in    
Wind  
Wind Speed 5 mph ()    
Max Wind Speed 20 mph    
Max Gust Speed -    
Visibility 6.7 miles    
Events Rain    
Averages and records for this station are not official NWS values.
T = Trace of Precipitation, MM = Missing Value Source: Averaged Metar Reports

Daily Weather History Graph

Daily Weather History Graph

Search for Another Location

Airport or City:

Trip Planner

Search our weather history database for the weather conditions in past years. The results will help you decide how hot, cold, wet, or windy it might be!

Date:

Astronomy

Oct. 05, 2012 Rise Set
Actual Time 6:15 AM EEST 5:50 PM EEST
Civil Twilight 5:48 AM EEST 6:17 PM EEST
Nautical Twilight 5:17 AM EEST 6:49 PM EEST
Astronomical Twilight 4:45 AM EEST 7:20 PM EEST
Moon 8:56 PM EEST (10/5) 11:05 AM EEST (10/5)
Length of Visible Light 12h 29m
Length of Day
11h 35m
Waning Gibbous, 76% of the Moon is Illuminated
Oct 5
Waning Gibbous
Oct 8
Last Quarter
Oct 15
New
Oct 22
First Quarter
Oct 29
Full

Hourly Weather History & Observations

Time (EEST) Temp. Windchill Dew Point Humidity Pressure Visibility Wind Dir Wind Speed Gust Speed Precip Events Conditions
12:20 AM 48.2 °F - 44.6 °F 87% 30.09 in 6.2 mi Variable 3.5 mph - N/A   Scattered Clouds
12:50 AM 46.4 °F 45.2 °F 44.6 °F 93% 30.09 in 6.2 mi East 3.5 mph - N/A   Scattered Clouds
1:20 AM 48.2 °F - 44.6 °F 87% 30.09 in 6.2 mi Variable 1.2 mph - N/A   Scattered Clouds
1:50 AM 46.4 °F 44.3 °F 44.6 °F 93% 30.09 in 6.2 mi West 4.6 mph - N/A Rain Light Rain Showers
2:20 AM 44.6 °F - 44.6 °F 100% 30.09 in 6.2 mi Variable 1.2 mph - N/A   Scattered Clouds
3:00 AM 45 °F - 44 °F 95%  in 12 mi SW 3.5 mph - -   Partly Cloudy
3:20 AM 44.6 °F 42.2 °F 42.8 °F 93% 30.09 in 6.2 mi SE 4.6 mph - N/A   Scattered Clouds
3:50 AM 44.6 °F 42.2 °F 42.8 °F 93% 30.06 in 6.2 mi East 4.6 mph - N/A   Scattered Clouds
4:20 AM 42.8 °F 40.1 °F 42.8 °F 100% 30.06 in 6.2 mi ENE 4.6 mph - N/A   Scattered Clouds
4:50 AM 42.8 °F 41.1 °F 42.8 °F 100% 30.09 in 6.2 mi NE 3.5 mph - N/A   Scattered Clouds
5:20 AM 42.8 °F - 41.0 °F 93% 30.09 in - Variable 1.2 mph - N/A   Clear
5:50 AM 42.8 °F 40.1 °F 42.8 °F 100% 30.09 in 6.2 mi SW 4.6 mph - N/A   Scattered Clouds
6:20 AM 44.6 °F 43.1 °F 44.6 °F 100% 30.09 in 6.2 mi SW 3.5 mph - N/A   Scattered Clouds
6:50 AM 44.6 °F - 42.8 °F 93% 30.09 in 6.2 mi Variable 1.2 mph - N/A   Scattered Clouds
7:20 AM 46.4 °F - 44.6 °F 93% 30.12 in 6.2 mi Variable 2.3 mph - N/A   Scattered Clouds
7:50 AM 48.2 °F - 46.4 °F 93% 30.12 in 6.2 mi Variable 1.2 mph - N/A   Scattered Clouds
8:20 AM 51.8 °F - 46.4 °F 82% 30.12 in 6.2 mi Calm Calm - N/A   Scattered Clouds
8:50 AM 53.6 °F - 48.2 °F 82% 30.12 in 6.2 mi Variable 2.3 mph - N/A   Scattered Clouds
9:00 AM 53 °F - 47 °F 75%  in 12 mi NNE 2.3 mph - -   Partly Cloudy
9:20 AM 53.6 °F - 46.4 °F 77% 30.12 in 6.2 mi Variable 2.3 mph - N/A   Scattered Clouds
9:50 AM 55.4 °F - 46.4 °F 72% 30.12 in 6.2 mi Variable 2.3 mph - N/A   Scattered Clouds
10:20 AM 59.0 °F - 48.2 °F 67% 30.12 in 6.2 mi NE 1.2 mph - N/A   Scattered Clouds
10:50 AM 60.8 °F - 48.2 °F 63% 30.12 in 6.2 mi East 2.3 mph - N/A   Scattered Clouds
11:20 AM 60.8 °F - 46.4 °F 59% 30.12 in 6.2 mi WNW 4.6 mph - N/A   Scattered Clouds
11:50 AM 59.0 °F - 46.4 °F 63% 30.12 in 6.2 mi NW 5.8 mph - N/A   Scattered Clouds
12:20 PM 60.8 °F - 46.4 °F 59% 30.09 in 6.2 mi WNW 6.9 mph - N/A Rain Light Rain
12:50 PM 60.8 °F - 48.2 °F 63% 30.09 in 6.2 mi WSW 5.8 mph - N/A   Scattered Clouds
1:20 PM 66.2 °F - 46.4 °F 49% 30.09 in 6.2 mi WSW 4.6 mph - N/A   Scattered Clouds
1:50 PM 66.2 °F - 44.6 °F 46% 30.09 in 6.2 mi West 16.1 mph - N/A   Scattered Clouds
2:20 PM 68.0 °F - 39.2 °F 35% 30.09 in 6.2 mi West 17.3 mph - N/A   Scattered Clouds
2:50 PM 68.0 °F - 35.6 °F 30% 30.09 in 6.2 mi West 19.6 mph - N/A   Scattered Clouds
3:00 PM 68 °F - 35 °F 19%  in 12 mi West 19.6 mph - -   Partly Cloudy
3:20 PM 68.0 °F - 35.6 °F 30% 30.09 in 6.2 mi West 17.3 mph - N/A   Scattered Clouds
3:50 PM 68.0 °F - 37.4 °F 33% 30.09 in 6.2 mi West 19.6 mph - N/A   Scattered Clouds
4:20 PM 66.2 °F - 39.2 °F 37% 30.09 in 6.2 mi WSW 16.1 mph - N/A   Scattered Clouds
4:50 PM 64.4 °F - 39.2 °F 40% 30.09 in 6.2 mi West 13.8 mph - N/A   Scattered Clouds
5:20 PM 64.4 °F - 41.0 °F 42% 30.12 in 6.2 mi West 12.7 mph - N/A   Scattered Clouds
5:50 PM 60.8 °F - 42.8 °F 52% 30.12 in 6.2 mi West 10.4 mph - N/A   Scattered Clouds
6:20 PM 57.2 °F - 44.6 °F 63% 30.12 in 6.2 mi West 6.9 mph - N/A   Scattered Clouds
6:50 PM 55.4 °F - 44.6 °F 67% 30.15 in 6.2 mi West 6.9 mph - N/A   Scattered Clouds
7:20 PM 55.4 °F - 42.8 °F 63% 30.15 in 6.2 mi West 5.8 mph - N/A   Scattered Clouds
7:50 PM 55.4 °F - 44.6 °F 67% 30.15 in 6.2 mi SW 5.8 mph - N/A   Scattered Clouds
8:20 PM 55.4 °F - 42.8 °F 63% 30.15 in - SW 3.5 mph - N/A   Clear
8:50 PM 55.4 °F - 44.6 °F 67% 30.18 in 6.2 mi West 5.8 mph - N/A   Scattered Clouds
9:00 PM 56 °F - 44 °F 53%  in 12 mi WSW 4.6 mph - -   Partly Cloudy
9:20 PM 53.6 °F - 44.6 °F 72% 30.18 in 6.2 mi West 2.3 mph - N/A   Scattered Clouds
9:50 PM 53.6 °F - 44.6 °F 72% 30.18 in 6.2 mi WNW 3.5 mph - N/A   Scattered Clouds
10:20 PM 51.8 °F - 44.6 °F 76% 30.18 in 6.2 mi West 5.8 mph - N/A   Scattered Clouds
10:50 PM 51.8 °F - 46.4 °F 82% 30.18 in 6.2 mi Variable 2.3 mph - N/A   Scattered Clouds
11:20 PM 51.8 °F - 44.6 °F 76% 30.18 in 6.2 mi Variable 1.2 mph - N/A   Scattered Clouds
11:50 PM 50.0 °F - 46.4 °F 87% 30.21 in 6.2 mi ESE 2.3 mph - N/A   Scattered Clouds